Other Surface Observations
Issued by NWS

Home | Current Version | Previous Version | Text Only | Print | Product List | Glossary On
Versions: 1 2 3 4 5 6 7 8 9 10 11 12 13 14 15 16 17 18 19 20 21 22 23 24 25 26 27 28 29 30 31 32 33 34 35 36 37 38 39 40 41 42 43 44 45 46 47 48 49 50
000
SXUS52 KTAE 251919
OSOTAE
OSOTAE
North Florida/South Alabama/Southwest Georgia Weather Roundup
National Weather Service Tallahassee Florida
300 PM EDT MON SEP 25 2017

Note: "fair" indicates few or no clouds below 12,000 feet with no
significant weather and/or obstructions to visibility.

!FLZ017-115-028-034-025-252000
...North Florida...

CITY           SKY/WX    TMP DP  RH WIND       PRES   REMARKS
TALLAHASSEE    PTSUNNY   88  68  51 NE8       29.89F HX  91
APALACHICOLA   SUNNY     84  75  74 E10       29.90F HX  92
PERRY          PTSUNNY   87  67  51 CALM      29.90F HX  90
CROSS CITY     MOSUNNY   88  69  52 NW7       29.93F HX  92
JACKSONVILLE   MOSUNNY   90  64  42 N9        29.86F HX  91
$$

!FLZ112-006-005-002-011-252000
...Florida Panhandle...

CITY           SKY/WX    TMP DP  RH WIND       PRES   REMARKS
MARIANNA       CLOUDY    86  68  54 NE7       29.90F
BONIFAY        NOT AVBL
PANAMA CITY NW PTSUNNY   85  69  58 VRB3      29.88F
TYNDALL AFB    PTSUNNY   82  75  78 SW8       29.89F
TYND DRONE APT MOCLDY    86  75  70 SW5       29.88F HX  95
DE FUNIAK SPR  FAIR      84  67  57 SE7       29.92F
EGLIN AFB      PTSUNNY   84  66  54 E9        29.90F
DESTIN         MOSUNNY   86  70  58 NE7       29.91F HX  90
HURLBURT       MOSUNNY   85  55  34 SE10      29.89F
CRESTVIEW      MOSUNNY   86  70  58 NE6       29.93F HX  90
PENSACOLA      SUNNY     85  68  56 E10       29.90F
$$

!ALZ063-066-252000
...South Alabama...

CITY           SKY/WX    TMP DP  RH WIND       PRES   REMARKS
DOTHAN         PTSUNNY   85  68  56 SE3       29.96F
OZARK CAIRNS   MOSUNNY   87  68  54 NE7       29.91F HX  90
FT RUCKER HELI SUNNY     85  69  57 NE3       29.91F
RUCKER HELI 3  CLOUDY    83  68  59 E6        29.92F
RUCKER HELI 2  FAIR      87  66  50 NE6       29.91F
FLORALA APT    NOT AVBL
ANDALUSIA      NOT AVBL
TROY           PTSUNNY   85  68  56 E9        29.94F
EUFALA         NOT AVBL
MOBILE         CLOUDY    81  71  71 NE13      29.91S
$$

!GAZ120>161-252000
...Southwest and South Central Georgia...

CITY           SKY/WX    TMP DP  RH WIND       PRES   REMARKS
THOMASVILLE    FAIR      88  66  48 N3        29.91F HX  90
BAINBRIDGE     SUNNY     88  70  55 CALM      29.90F HX  92
MOODY AFB      SUNNY     87  67  50 NW5       29.89F HX  90
VALDOSTA       MOSUNNY   88  67  49 VRB5      29.89F HX  91
MOULTRIE       MOSUNNY   88  64  45 NE3       29.91F
BLAKELY        MOSUNNY   88  64  45 NE3       29.91F
ALBANY         PTSUNNY   87  66  49 NE8       29.93F
TIFTON         FAIR      86  63  45 N3        29.91F
FITZGERALD     FAIR      89  68  50 N3        29.93F HX  92
CORDELE        FAIR      92  61  35 N8        29.93F HX  91
AMERICUS       FAIR      88  55  33 E8        29.95F
HOMERVILLE     FAIR      88  64  45 N6        29.90F
$$

!GMZ750-755-770-775-252000
...Coastal and Buoy Obs...

STATION/POSITION TIME  TEMP    WIND        PRES    VSBY  WAVE
                       AIR SEA DIR/SP/G                  HT/PER
                 (UTC) (F)     (DEG/KT/KT) (MB)    (MI)  (FT/S)
KEATON BEACH     1900   82     260/  8/  9 1011.9F
CEDAR KEY        1900   83     250/  5/  7 1012.3F
C TOWER          1900   80     120/  7/  8 1012.6F
APALACHICOLA BUO 1850   81 83  150/  8/ 10 1011.9F         2/ 4
PANAMA CITY BUOY 1850   79 82   80/  8/ 10 1011.9F         2/ 6
MOBILE BUOY      1900   81 83  100/  8/ 10 1011.8
ORANGE BCH AL BU 1850   80 82   90/ 12/ 14 1012.0F         3/ 5
$$




USA.gov is the U.S. government's official web portal to all federal, state and local government web resources and services.